Year,Month,Day,Hour,Minute,Value (Times are PST for temperature in C)
2015,06,14,00,00,12.80
2015,06,14,00,01,12.80
2015,06,14,00,02,12.80
2015,06,14,00,03,12.80
2015,06,14,00,04,12.80
2015,06,14,00,05,12.70
2015,06,14,00,06,12.70
2015,06,14,00,07,12.70
2015,06,14,00,08,12.70
2015,06,14,00,09,12.60
2015,06,14,00,10,12.60
2015,06,14,00,11,12.60
2015,06,14,00,12,12.50
2015,06,14,00,13,12.50
2015,06,14,00,14,12.50
2015,06,14,00,15,12.50
2015,06,14,00,16,12.40
2015,06,14,00,17,12.40
2015,06,14,00,18,12.40
2015,06,14,00,19,12.40
2015,06,14,00,20,12.30
2015,06,14,00,21,12.30
2015,06,14,00,22,12.30
2015,06,14,00,23,12.30
2015,06,14,00,24,12.30
2015,06,14,00,25,12.30
2015,06,14,00,26,12.20
2015,06,14,00,27,12.20
2015,06,14,00,28,12.10
2015,06,14,00,29,12.10
2015,06,14,00,30,12.10
2015,06,14,00,31,12.00
2015,06,14,00,32,12.00
2015,06,14,00,33,12.00
2015,06,14,00,34,12.00
2015,06,14,00,35,11.90
2015,06,14,00,36,11.90
2015,06,14,00,37,11.90
2015,06,14,00,38,11.90
2015,06,14,00,39,11.90
2015,06,14,00,40,11.80
2015,06,14,00,41,11.80
2015,06,14,00,42,11.80
2015,06,14,00,43,11.80
2015,06,14,00,44,11.80
2015,06,14,00,45,11.80
2015,06,14,00,46,11.80
2015,06,14,00,47,11.80
2015,06,14,00,48,11.70
2015,06,14,00,49,11.70
2015,06,14,00,50,11.70
2015,06,14,00,51,11.70
2015,06,14,00,52,11.60
2015,06,14,00,53,11.60
2015,06,14,00,54,11.60
2015,06,14,00,55,11.60
2015,06,14,00,56,11.60
2015,06,14,00,57,11.60
2015,06,14,00,58,11.60
2015,06,14,00,59,11.60
2015,06,14,01,00,11.60
2015,06,14,01,01,11.60
2015,06,14,01,02,11.50
2015,06,14,01,03,11.40
2015,06,14,01,04,11.40
2015,06,14,01,05,11.40
2015,06,14,01,06,11.40
2015,06,14,01,07,11.40
2015,06,14,01,08,11.40
2015,06,14,01,09,11.40
2015,06,14,01,10,11.40
2015,06,14,01,11,11.40
2015,06,14,01,12,11.30
2015,06,14,01,13,11.30
2015,06,14,01,14,11.30
2015,06,14,01,15,11.20
2015,06,14,01,16,11.20
2015,06,14,01,17,11.10
2015,06,14,01,18,11.10
2015,06,14,01,19,11.10
2015,06,14,01,20,11.10
2015,06,14,01,21,11.10
2015,06,14,01,22,11.10
2015,06,14,01,23,11.10
2015,06,14,01,24,11.10
2015,06,14,01,25,11.10
2015,06,14,01,26,11.00
2015,06,14,01,27,11.00
2015,06,14,01,28,10.90
2015,06,14,01,29,10.90
2015,06,14,01,30,10.90
2015,06,14,01,31,10.90
2015,06,14,01,32,10.90
2015,06,14,01,33,10.90
2015,06,14,01,34,10.90
2015,06,14,01,35,10.90
2015,06,14,01,36,10.80
2015,06,14,01,37,10.80
2015,06,14,01,38,10.80
2015,06,14,01,39,10.80
2015,06,14,01,40,10.70
2015,06,14,01,41,10.70
2015,06,14,01,42,10.70
2015,06,14,01,43,10.70
2015,06,14,01,44,10.70
2015,06,14,01,45,10.70
2015,06,14,01,46,10.60
2015,06,14,01,47,10.60
2015,06,14,01,48,10.60
2015,06,14,01,49,10.60
2015,06,14,01,50,10.60
2015,06,14,01,51,10.60
2015,06,14,01,52,10.60
2015,06,14,01,53,10.50
2015,06,14,01,54,10.40
2015,06,14,01,55,10.40
2015,06,14,01,56,10.40
2015,06,14,01,57,10.40
2015,06,14,01,58,10.40
2015,06,14,01,59,10.40
2015,06,14,02,00,10.40
2015,06,14,02,01,10.40
2015,06,14,02,02,10.40
2015,06,14,02,03,10.40
2015,06,14,02,04,10.30
2015,06,14,02,05,10.30
2015,06,14,02,06,10.30
2015,06,14,02,07,10.30
2015,06,14,02,08,10.30
2015,06,14,02,09,10.20
2015,06,14,02,10,10.20
2015,06,14,02,11,10.20
2015,06,14,02,12,10.20
2015,06,14,02,13,10.20
2015,06,14,02,14,10.20
2015,06,14,02,15,10.10
2015,06,14,02,16,10.10
2015,06,14,02,17,10.10
2015,06,14,02,18,10.10
2015,06,14,02,19,10.10
2015,06,14,02,20,10.10
2015,06,14,02,21,10.10
2015,06,14,02,22,10.10
2015,06,14,02,23,10.10
2015,06,14,02,24,10.10
2015,06,14,02,25,10.10
2015,06,14,02,26,10.10
2015,06,14,02,27,10.10
2015,06,14,02,28,10.10
2015,06,14,02,29,10.00
2015,06,14,02,30,9.90
2015,06,14,02,31,9.90
2015,06,14,02,32,9.90
2015,06,14,02,33,9.90
2015,06,14,02,34,9.90
2015,06,14,02,35,9.90
2015,06,14,02,36,9.90
2015,06,14,02,37,10.00
2015,06,14,02,38,10.00
2015,06,14,02,39,10.00
2015,06,14,02,40,10.00
2015,06,14,02,41,10.10
2015,06,14,02,42,10.10
2015,06,14,02,43,10.00
2015,06,14,02,44,9.90
2015,06,14,02,45,9.90
2015,06,14,02,46,9.90
2015,06,14,02,47,9.90
2015,06,14,02,48,9.90
2015,06,14,02,49,9.90
2015,06,14,02,50,9.90
2015,06,14,02,51,9.90
2015,06,14,02,52,9.90
2015,06,14,02,53,9.90
2015,06,14,02,54,9.90
2015,06,14,02,55,9.90
2015,06,14,02,56,9.90
2015,06,14,02,57,9.90
2015,06,14,02,58,9.80
2015,06,14,02,59,9.80
2015,06,14,03,00,9.80
2015,06,14,03,01,9.70
2015,06,14,03,02,9.70
2015,06,14,03,03,9.70
2015,06,14,03,04,9.70
2015,06,14,03,05,9.70
2015,06,14,03,06,9.70
2015,06,14,03,07,9.70
2015,06,14,03,08,9.70
2015,06,14,03,09,9.70
2015,06,14,03,10,9.70
2015,06,14,03,11,9.70
2015,06,14,03,12,9.60
2015,06,14,03,13,9.60
2015,06,14,03,14,9.60
2015,06,14,03,15,9.60
2015,06,14,03,16,9.60
2015,06,14,03,17,9.60
2015,06,14,03,18,9.60
2015,06,14,03,19,9.50
2015,06,14,03,20,9.50
2015,06,14,03,21,9.50
2015,06,14,03,22,9.50
2015,06,14,03,23,9.50
2015,06,14,03,24,9.50
2015,06,14,03,25,9.50
2015,06,14,03,26,9.50
2015,06,14,03,27,9.50
2015,06,14,03,28,9.40
2015,06,14,03,29,9.40
2015,06,14,03,30,9.40
2015,06,14,03,31,9.40
2015,06,14,03,32,9.40
2015,06,14,03,33,9.40
2015,06,14,03,34,9.40
2015,06,14,03,35,9.40
2015,06,14,03,36,9.40
2015,06,14,03,37,9.40
2015,06,14,03,38,9.40
2015,06,14,03,39,9.30
2015,06,14,03,40,9.30
2015,06,14,03,41,9.30
2015,06,14,03,42,9.30
2015,06,14,03,43,9.30
2015,06,14,03,44,9.30
2015,06,14,03,45,9.30
2015,06,14,03,46,9.30
2015,06,14,03,47,9.30
2015,06,14,03,48,9.20
2015,06,14,03,49,9.20
2015,06,14,03,50,9.30
2015,06,14,03,51,9.30
2015,06,14,03,52,9.30
2015,06,14,03,53,9.30
2015,06,14,03,54,9.30
2015,06,14,03,55,9.30
2015,06,14,03,56,9.30
2015,06,14,03,57,9.20
2015,06,14,03,58,9.20
2015,06,14,03,59,9.20
2015,06,14,04,00,9.30
2015,06,14,04,01,9.30
2015,06,14,04,02,9.30
2015,06,14,04,03,9.30
2015,06,14,04,04,9.30
2015,06,14,04,05,9.30
2015,06,14,04,06,9.30
2015,06,14,04,07,9.30
2015,06,14,04,08,9.30
2015,06,14,04,09,9.30
2015,06,14,04,10,9.20
2015,06,14,04,11,9.20
2015,06,14,04,12,9.20
2015,06,14,04,13,9.20
2015,06,14,04,14,9.20
2015,06,14,04,15,9.20
2015,06,14,04,16,9.20
2015,06,14,04,17,9.20
2015,06,14,04,18,9.20
2015,06,14,04,19,9.20
2015,06,14,04,20,9.20
2015,06,14,04,21,9.20
2015,06,14,04,22,9.20
2015,06,14,04,23,9.20
2015,06,14,04,24,9.10
2015,06,14,04,25,9.10
2015,06,14,04,26,9.10
2015,06,14,04,27,9.10
2015,06,14,04,28,9.10
2015,06,14,04,29,9.00
2015,06,14,04,30,9.00
2015,06,14,04,31,9.00
2015,06,14,04,32,9.00
2015,06,14,04,33,9.00
2015,06,14,04,34,9.10
2015,06,14,04,35,9.20
2015,06,14,04,36,9.20
2015,06,14,04,37,9.20
2015,06,14,04,38,9.20
2015,06,14,04,39,9.20
2015,06,14,04,40,9.20
2015,06,14,04,41,9.20
2015,06,14,04,42,9.20
2015,06,14,04,43,9.20
2015,06,14,04,44,9.20
2015,06,14,04,45,9.20
2015,06,14,04,46,9.20
2015,06,14,04,47,9.20
2015,06,14,04,48,9.10
2015,06,14,04,49,9.10
2015,06,14,04,50,9.00
2015,06,14,04,51,9.00
2015,06,14,04,52,9.00
2015,06,14,04,53,9.00
2015,06,14,04,54,9.00
2015,06,14,04,55,8.90
2015,06,14,04,56,8.90
2015,06,14,04,57,8.90
2015,06,14,04,58,8.90
2015,06,14,04,59,8.90
2015,06,14,05,00,8.90
2015,06,14,05,01,8.90
2015,06,14,05,02,8.90
2015,06,14,05,03,8.90
2015,06,14,05,04,8.90
2015,06,14,05,05,8.80
2015,06,14,05,06,8.80
2015,06,14,05,07,8.80
2015,06,14,05,08,8.80
2015,06,14,05,09,8.80
2015,06,14,05,10,8.80
2015,06,14,05,11,8.70
2015,06,14,05,12,8.70
2015,06,14,05,13,8.70
2015,06,14,05,14,8.70
2015,06,14,05,15,8.70
2015,06,14,05,16,8.70
2015,06,14,05,17,8.70
2015,06,14,05,18,8.70
2015,06,14,05,19,8.70
2015,06,14,05,20,8.70
2015,06,14,05,21,8.70
2015,06,14,05,22,8.70
2015,06,14,05,23,8.70
2015,06,14,05,24,8.60
2015,06,14,05,25,8.60
2015,06,14,05,26,8.60
2015,06,14,05,27,8.60
2015,06,14,05,28,8.70
2015,06,14,05,29,8.70
2015,06,14,05,30,8.70
2015,06,14,05,31,8.70
2015,06,14,05,32,8.70
2015,06,14,05,33,8.70
2015,06,14,05,34,8.70
2015,06,14,05,35,8.70
2015,06,14,05,36,8.70
2015,06,14,05,37,8.70
2015,06,14,05,38,8.70
2015,06,14,05,39,8.70
2015,06,14,05,40,8.70
2015,06,14,05,41,8.70
2015,06,14,05,42,8.70
2015,06,14,05,43,8.70
2015,06,14,05,44,8.70
2015,06,14,05,45,8.70
2015,06,14,05,46,8.70
2015,06,14,05,47,8.70
2015,06,14,05,48,8.70
2015,06,14,05,49,8.70
2015,06,14,05,50,8.70
2015,06,14,05,51,8.70
2015,06,14,05,52,8.70
2015,06,14,05,53,8.70
2015,06,14,05,54,8.70
2015,06,14,05,55,8.70
2015,06,14,05,56,8.70
2015,06,14,05,57,8.70
2015,06,14,05,58,8.70
2015,06,14,05,59,8.70
2015,06,14,06,00,8.70
2015,06,14,06,01,8.80
2015,06,14,06,02,8.80
2015,06,14,06,03,8.90
2015,06,14,06,04,8.90
2015,06,14,06,05,9.00
2015,06,14,06,06,9.00
2015,06,14,06,07,9.10
2015,06,14,06,08,9.10
2015,06,14,06,09,9.20
2015,06,14,06,10,9.20
2015,06,14,06,11,9.20
2015,06,14,06,12,9.30
2015,06,14,06,13,9.30
2015,06,14,06,14,9.40
2015,06,14,06,15,9.40
2015,06,14,06,16,9.50
2015,06,14,06,17,9.50
2015,06,14,06,18,9.50
2015,06,14,06,19,9.60
2015,06,14,06,20,9.60
2015,06,14,06,21,9.70
2015,06,14,06,22,9.70
2015,06,14,06,23,9.70
2015,06,14,06,24,9.70
2015,06,14,06,25,9.80
2015,06,14,06,26,9.80
2015,06,14,06,27,9.90
2015,06,14,06,28,9.90
2015,06,14,06,29,9.90
2015,06,14,06,30,10.00
2015,06,14,06,31,10.10
2015,06,14,06,32,10.10
2015,06,14,06,33,10.20
2015,06,14,06,34,10.30
2015,06,14,06,35,10.40
2015,06,14,06,36,10.40
2015,06,14,06,37,10.60
2015,06,14,06,38,10.60
2015,06,14,06,39,10.70
2015,06,14,06,40,10.80
2015,06,14,06,41,10.90
2015,06,14,06,42,11.00
2015,06,14,06,43,11.10
2015,06,14,06,44,11.20
2015,06,14,06,45,11.20
2015,06,14,06,46,11.30
2015,06,14,06,47,11.40
2015,06,14,06,48,11.50
2015,06,14,06,49,11.60
2015,06,14,06,50,11.60
2015,06,14,06,51,11.70
2015,06,14,06,52,11.80
2015,06,14,06,53,11.80
2015,06,14,06,54,11.90
2015,06,14,06,55,11.90
2015,06,14,06,56,12.00
2015,06,14,06,57,12.10
2015,06,14,06,58,12.10
2015,06,14,06,59,12.20
2015,06,14,07,00,12.30
2015,06,14,07,01,12.40
2015,06,14,07,02,12.50
2015,06,14,07,03,12.60
2015,06,14,07,04,12.80
2015,06,14,07,05,12.90
2015,06,14,07,06,13.00
2015,06,14,07,07,13.10
2015,06,14,07,08,13.20
2015,06,14,07,09,13.30
2015,06,14,07,10,13.40
2015,06,14,07,11,13.50
2015,06,14,07,12,13.70
2015,06,14,07,13,13.80
2015,06,14,07,14,13.90
2015,06,14,07,15,14.00
2015,06,14,07,16,14.20
2015,06,14,07,17,14.30
2015,06,14,07,18,14.40
2015,06,14,07,19,14.50
2015,06,14,07,20,14.60
2015,06,14,07,21,14.70
2015,06,14,07,22,14.80
2015,06,14,07,23,14.90
2015,06,14,07,24,15.00
2015,06,14,07,25,15.10
2015,06,14,07,26,15.20
2015,06,14,07,27,15.30
2015,06,14,07,28,15.30
2015,06,14,07,29,15.40
2015,06,14,07,30,15.50
2015,06,14,07,31,15.60
2015,06,14,07,32,15.70
2015,06,14,07,33,15.80
2015,06,14,07,34,15.80
2015,06,14,07,35,15.90
2015,06,14,07,36,16.00
2015,06,14,07,37,16.10
2015,06,14,07,38,16.10
2015,06,14,07,39,16.20
2015,06,14,07,40,16.20
2015,06,14,07,41,16.30
2015,06,14,07,42,16.40
2015,06,14,07,43,16.40
2015,06,14,07,44,16.40
2015,06,14,07,45,16.60
2015,06,14,07,46,16.60
2015,06,14,07,47,16.60
2015,06,14,07,48,16.70
2015,06,14,07,49,16.70
2015,06,14,07,50,16.80
2015,06,14,07,51,16.90
2015,06,14,07,52,16.90
2015,06,14,07,53,17.00
2015,06,14,07,54,17.00
2015,06,14,07,55,17.10
2015,06,14,07,56,17.10
2015,06,14,07,57,17.10
2015,06,14,07,58,17.10
2015,06,14,07,59,17.10
2015,06,14,08,00,17.10
2015,06,14,08,01,17.20
2015,06,14,08,02,17.20
2015,06,14,08,03,17.30
2015,06,14,08,04,17.30
2015,06,14,08,05,17.30
2015,06,14,08,06,17.30
2015,06,14,08,07,17.30
2015,06,14,08,08,17.30
2015,06,14,08,09,17.30
2015,06,14,08,10,17.40
2015,06,14,08,11,17.40
2015,06,14,08,12,17.40
2015,06,14,08,13,17.50
2015,06,14,08,14,17.50
2015,06,14,08,15,17.50
2015,06,14,08,16,17.50
2015,06,14,08,17,17.60
2015,06,14,08,18,17.60
2015,06,14,08,19,17.50
2015,06,14,08,20,17.50
2015,06,14,08,21,17.60
2015,06,14,08,22,17.60
2015,06,14,08,23,17.70
2015,06,14,08,24,17.70
2015,06,14,08,25,17.80
2015,06,14,08,26,17.80
2015,06,14,08,27,17.80
2015,06,14,08,28,17.80
2015,06,14,08,29,17.90
2015,06,14,08,30,17.80
2015,06,14,08,31,17.80
2015,06,14,08,32,17.80
2015,06,14,08,33,17.80
2015,06,14,08,34,17.80
2015,06,14,08,35,17.80
2015,06,14,08,36,17.90
2015,06,14,08,37,17.90
2015,06,14,08,38,17.90
2015,06,14,08,39,17.90
2015,06,14,08,40,18.00
2015,06,14,08,41,18.10
2015,06,14,08,42,18.10
2015,06,14,08,43,18.20
2015,06,14,08,44,18.20
2015,06,14,08,45,18.20
2015,06,14,08,46,18.30
2015,06,14,08,47,18.30
2015,06,14,08,48,18.30
2015,06,14,08,49,18.30
2015,06,14,08,50,18.40
2015,06,14,08,51,18.40
2015,06,14,08,52,18.50
2015,06,14,08,53,18.50
2015,06,14,08,54,18.50
2015,06,14,08,55,18.50
2015,06,14,08,56,18.60
2015,06,14,08,57,18.60
2015,06,14,08,58,18.50
2015,06,14,08,59,18.50
2015,06,14,09,00,18.50
2015,06,14,09,01,18.50
2015,06,14,09,02,18.50
2015,06,14,09,03,18.50
2015,06,14,09,04,18.50
2015,06,14,09,05,18.40
2015,06,14,09,06,18.40
2015,06,14,09,07,18.40
2015,06,14,09,08,18.30
2015,06,14,09,09,18.30
2015,06,14,09,10,18.30
2015,06,14,09,11,18.20
2015,06,14,09,12,18.20
2015,06,14,09,13,18.20
2015,06,14,09,14,18.20
2015,06,14,09,15,18.30
2015,06,14,09,16,18.40
2015,06,14,09,17,18.40
2015,06,14,09,18,18.40
2015,06,14,09,19,18.40
2015,06,14,09,20,18.50
2015,06,14,09,21,18.50
2015,06,14,09,22,18.50
2015,06,14,09,23,18.60
2015,06,14,09,24,18.50
2015,06,14,09,25,18.50
2015,06,14,09,26,18.50
2015,06,14,09,27,18.40
2015,06,14,09,28,18.30
2015,06,14,09,29,18.40
2015,06,14,09,30,18.40
2015,06,14,09,31,18.50
2015,06,14,09,32,18.50
2015,06,14,09,33,18.60
2015,06,14,09,34,18.60
2015,06,14,09,35,18.60
2015,06,14,09,36,18.60
2015,06,14,09,37,18.70
2015,06,14,09,38,18.60
2015,06,14,09,39,18.60
2015,06,14,09,40,18.70
2015,06,14,09,41,18.70
2015,06,14,09,42,18.70
2015,06,14,09,43,18.80
2015,06,14,09,44,18.80
2015,06,14,09,45,18.90
2015,06,14,09,46,18.90
2015,06,14,09,47,18.90
2015,06,14,09,48,19.00
2015,06,14,09,49,19.00
2015,06,14,09,50,19.00
2015,06,14,09,51,19.10
2015,06,14,09,52,19.10
2015,06,14,09,53,19.10
2015,06,14,09,54,19.10
2015,06,14,09,55,19.10
2015,06,14,09,56,19.20
2015,06,14,09,57,19.20
2015,06,14,09,58,19.20
2015,06,14,09,59,19.10
2015,06,14,10,00,19.10
2015,06,14,10,01,19.10
2015,06,14,10,02,19.10
2015,06,14,10,03,19.20
2015,06,14,10,04,19.30
2015,06,14,10,05,19.40
2015,06,14,10,06,19.40
2015,06,14,10,07,19.40
2015,06,14,10,08,19.40
2015,06,14,10,09,19.40
2015,06,14,10,10,19.50
2015,06,14,10,11,19.50
2015,06,14,10,12,19.60
2015,06,14,10,13,19.60
2015,06,14,10,14,19.60
2015,06,14,10,15,19.60
2015,06,14,10,16,19.70
2015,06,14,10,17,19.70
2015,06,14,10,18,19.60
2015,06,14,10,19,19.60
2015,06,14,10,20,19.60
2015,06,14,10,21,19.60
2015,06,14,10,22,19.60
2015,06,14,10,23,19.60
2015,06,14,10,24,19.60
2015,06,14,10,25,19.60
2015,06,14,10,26,19.60
2015,06,14,10,27,19.60
2015,06,14,10,28,19.80
2015,06,14,10,29,19.90
2015,06,14,10,30,19.90
2015,06,14,10,31,19.80
2015,06,14,10,32,19.60
2015,06,14,10,33,19.60
2015,06,14,10,34,19.60
2015,06,14,10,35,19.70
2015,06,14,10,36,19.80
2015,06,14,10,37,19.80
2015,06,14,10,38,19.80
2015,06,14,10,39,19.90
2015,06,14,10,40,20.00
2015,06,14,10,41,20.10
2015,06,14,10,42,20.10
2015,06,14,10,43,20.20
2015,06,14,10,44,20.20
2015,06,14,10,45,20.20
2015,06,14,10,46,20.20
2015,06,14,10,47,20.20
2015,06,14,10,48,20.30
2015,06,14,10,49,20.30
2015,06,14,10,50,20.30
2015,06,14,10,51,20.30
2015,06,14,10,52,20.30
2015,06,14,10,53,20.30
2015,06,14,10,54,20.20
2015,06,14,10,55,20.20
2015,06,14,10,56,20.20
2015,06,14,10,57,20.20
2015,06,14,10,58,20.20
2015,06,14,10,59,20.20
2015,06,14,11,00,20.20
2015,06,14,11,01,20.20
2015,06,14,11,02,20.10
2015,06,14,11,03,20.10
2015,06,14,11,04,20.00
2015,06,14,11,05,19.90
2015,06,14,11,06,20.00
2015,06,14,11,07,20.10
2015,06,14,11,08,20.20
2015,06,14,11,09,20.40
2015,06,14,11,10,20.50
2015,06,14,11,11,20.70
2015,06,14,11,12,20.80
2015,06,14,11,13,20.80
2015,06,14,11,14,20.80
2015,06,14,11,15,20.80
2015,06,14,11,16,20.90
2015,06,14,11,17,20.90
2015,06,14,11,18,20.90
2015,06,14,11,19,21.00
2015,06,14,11,20,21.10
2015,06,14,11,21,21.10
2015,06,14,11,22,21.10
2015,06,14,11,23,21.10
2015,06,14,11,24,21.10
2015,06,14,11,25,21.10
2015,06,14,11,26,21.10
2015,06,14,11,27,21.10
2015,06,14,11,28,21.10
2015,06,14,11,29,21.10
2015,06,14,11,30,21.20
2015,06,14,11,31,21.20
2015,06,14,11,32,21.20
2015,06,14,11,33,21.30
2015,06,14,11,34,21.30
2015,06,14,11,35,21.40
2015,06,14,11,36,21.40
2015,06,14,11,37,21.50
2015,06,14,11,38,21.60
2015,06,14,11,39,21.60
2015,06,14,11,40,21.60
2015,06,14,11,41,21.60
2015,06,14,11,42,21.60
2015,06,14,11,43,21.70
2015,06,14,11,44,21.70
2015,06,14,11,45,21.80
2015,06,14,11,46,21.80
2015,06,14,11,47,21.90
2015,06,14,11,48,21.90
2015,06,14,11,49,21.80
2015,06,14,11,50,21.80
2015,06,14,11,51,21.70
2015,06,14,11,52,21.60
2015,06,14,11,53,21.60
2015,06,14,11,54,21.60
2015,06,14,11,55,21.60
2015,06,14,11,56,21.70
2015,06,14,11,57,21.70
2015,06,14,11,58,21.80
2015,06,14,11,59,21.80
2015,06,14,12,00,21.80
2015,06,14,12,01,21.80
2015,06,14,12,02,21.80
2015,06,14,12,03,21.90
2015,06,14,12,04,21.90
2015,06,14,12,05,21.90
2015,06,14,12,06,21.90
2015,06,14,12,07,21.90
2015,06,14,12,08,21.90
2015,06,14,12,09,21.90
2015,06,14,12,10,22.00
2015,06,14,12,11,22.00
2015,06,14,12,12,22.10
2015,06,14,12,13,22.10
2015,06,14,12,14,22.20
2015,06,14,12,15,22.30
2015,06,14,12,16,22.30
2015,06,14,12,17,22.20
2015,06,14,12,18,22.20
2015,06,14,12,19,22.20
2015,06,14,12,20,22.20
2015,06,14,12,21,22.20
2015,06,14,12,22,22.20
2015,06,14,12,23,22.20
2015,06,14,12,24,22.20
2015,06,14,12,25,22.30
2015,06,14,12,26,22.30
2015,06,14,12,27,22.40
2015,06,14,12,28,22.50
2015,06,14,12,29,22.50
2015,06,14,12,30,22.50
2015,06,14,12,31,22.60
2015,06,14,12,32,22.70
2015,06,14,12,33,22.80
2015,06,14,12,34,22.80
2015,06,14,12,35,22.80
2015,06,14,12,36,22.80
2015,06,14,12,37,22.80
2015,06,14,12,38,22.70
2015,06,14,12,39,22.70
2015,06,14,12,40,22.70
2015,06,14,12,41,22.70
2015,06,14,12,42,22.80
2015,06,14,12,43,22.90
2015,06,14,12,44,22.90
2015,06,14,12,45,22.90
2015,06,14,12,46,22.90
2015,06,14,12,47,22.90
2015,06,14,12,48,22.80
2015,06,14,12,49,22.60
2015,06,14,12,50,22.40
2015,06,14,12,51,22.30
2015,06,14,12,52,22.30
2015,06,14,12,53,22.30
2015,06,14,12,54,22.30
2015,06,14,12,55,22.40
2015,06,14,12,56,22.60
2015,06,14,12,57,22.60
2015,06,14,12,58,22.60
2015,06,14,12,59,22.70
2015,06,14,13,00,22.70
2015,06,14,13,01,22.80
2015,06,14,13,02,22.80
2015,06,14,13,03,22.90
2015,06,14,13,04,22.90
2015,06,14,13,05,22.90
2015,06,14,13,06,22.90
2015,06,14,13,07,22.90
2015,06,14,13,08,22.90
2015,06,14,13,09,22.90
2015,06,14,13,10,22.90
2015,06,14,13,11,22.80
2015,06,14,13,12,22.70
2015,06,14,13,13,22.80
2015,06,14,13,14,22.80
2015,06,14,13,15,22.90
2015,06,14,13,16,23.00
2015,06,14,13,17,23.10
2015,06,14,13,18,23.10
2015,06,14,13,19,23.10
2015,06,14,13,20,23.20
2015,06,14,13,21,23.30
2015,06,14,13,22,23.30
2015,06,14,13,23,23.20
2015,06,14,13,24,23.30
2015,06,14,13,25,23.40
2015,06,14,13,26,23.40
2015,06,14,13,27,23.50
2015,06,14,13,28,23.60
2015,06,14,13,29,23.70
2015,06,14,13,30,23.70
2015,06,14,13,31,23.70
2015,06,14,13,32,23.70
2015,06,14,13,33,23.70
2015,06,14,13,34,23.60
2015,06,14,13,35,23.60
2015,06,14,13,36,23.60
2015,06,14,13,37,23.70
2015,06,14,13,38,23.70
2015,06,14,13,39,23.80
2015,06,14,13,40,23.80
2015,06,14,13,41,23.80
2015,06,14,13,42,23.80
2015,06,14,13,43,23.80
2015,06,14,13,44,23.70
2015,06,14,13,45,23.70
2015,06,14,13,46,23.70
2015,06,14,13,47,23.70
2015,06,14,13,48,23.70
2015,06,14,13,49,23.60
2015,06,14,13,50,23.60
2015,06,14,13,51,23.60
2015,06,14,13,52,23.40
2015,06,14,13,53,23.60
2015,06,14,13,54,23.70
2015,06,14,13,55,23.60
2015,06,14,13,56,23.60
2015,06,14,13,57,23.60
2015,06,14,13,58,23.60
2015,06,14,13,59,23.60
2015,06,14,14,00,23.70
2015,06,14,14,01,23.70
2015,06,14,14,02,23.80
2015,06,14,14,03,23.80
2015,06,14,14,04,23.90
2015,06,14,14,05,23.90
2015,06,14,14,06,24.00
2015,06,14,14,07,24.10
2015,06,14,14,08,24.20
2015,06,14,14,09,24.30
2015,06,14,14,10,24.40
2015,06,14,14,11,24.60
2015,06,14,14,12,24.60
2015,06,14,14,13,24.60
2015,06,14,14,14,24.40
2015,06,14,14,15,24.30
2015,06,14,14,16,24.10
2015,06,14,14,17,24.00
2015,06,14,14,18,23.90
2015,06,14,14,19,23.80
2015,06,14,14,20,23.70
2015,06,14,14,21,23.70
2015,06,14,14,22,23.70
2015,06,14,14,23,23.80
2015,06,14,14,24,23.90
2015,06,14,14,25,24.00
2015,06,14,14,26,24.10
2015,06,14,14,27,24.30
2015,06,14,14,28,24.40
2015,06,14,14,29,24.40
2015,06,14,14,30,24.30
2015,06,14,14,31,24.40
2015,06,14,14,32,24.40
2015,06,14,14,33,24.50
2015,06,14,14,34,24.50
2015,06,14,14,35,24.50
2015,06,14,14,36,24.50
2015,06,14,14,37,24.50
2015,06,14,14,38,24.40
2015,06,14,14,39,24.40
2015,06,14,14,40,24.40
2015,06,14,14,41,24.40
2015,06,14,14,42,24.40
2015,06,14,14,43,24.30
2015,06,14,14,44,24.20
2015,06,14,14,45,24.20
2015,06,14,14,46,24.20
2015,06,14,14,47,24.20
2015,06,14,14,48,24.20
2015,06,14,14,49,24.20
2015,06,14,14,50,24.30
2015,06,14,14,51,24.30
2015,06,14,14,52,24.40
2015,06,14,14,53,24.40
2015,06,14,14,54,24.30
2015,06,14,14,55,24.30
2015,06,14,14,56,24.20
2015,06,14,14,57,24.10
2015,06,14,14,58,24.10
2015,06,14,14,59,24.10
2015,06,14,15,00,23.90
2015,06,14,15,01,23.90
2015,06,14,15,02,23.70
2015,06,14,15,03,23.80
2015,06,14,15,04,24.00
2015,06,14,15,05,24.10
2015,06,14,15,06,24.30
2015,06,14,15,07,24.50
2015,06,14,15,08,24.60
2015,06,14,15,09,24.70
2015,06,14,15,10,24.80
2015,06,14,15,11,24.70
2015,06,14,15,12,24.80
2015,06,14,15,13,24.90
2015,06,14,15,14,25.10
2015,06,14,15,15,25.20
2015,06,14,15,16,25.40
2015,06,14,15,17,25.40
2015,06,14,15,18,25.50
2015,06,14,15,19,25.50
2015,06,14,15,20,25.50
2015,06,14,15,21,25.60
2015,06,14,15,22,25.60
2015,06,14,15,23,25.60
2015,06,14,15,24,25.60
2015,06,14,15,25,25.40
2015,06,14,15,26,25.40
2015,06,14,15,27,25.30
2015,06,14,15,28,25.20
2015,06,14,15,29,25.20
2015,06,14,15,30,25.10
2015,06,14,15,31,25.00
2015,06,14,15,32,24.90
2015,06,14,15,33,25.00
2015,06,14,15,34,25.10
2015,06,14,15,35,25.10
2015,06,14,15,36,25.10
2015,06,14,15,37,25.00
2015,06,14,15,38,24.90
2015,06,14,15,39,24.80
2015,06,14,15,40,24.80
2015,06,14,15,41,24.70
2015,06,14,15,42,24.60
2015,06,14,15,43,24.50
2015,06,14,15,44,24.50
2015,06,14,15,45,24.30
2015,06,14,15,46,24.20
2015,06,14,15,47,24.10
2015,06,14,15,48,24.10
2015,06,14,15,49,24.20
2015,06,14,15,50,24.30
2015,06,14,15,51,24.40
2015,06,14,15,52,24.50
2015,06,14,15,53,24.60
2015,06,14,15,54,24.70
2015,06,14,15,55,24.80
2015,06,14,15,56,25.00
2015,06,14,15,57,25.10
2015,06,14,15,58,25.10
2015,06,14,15,59,25.10
2015,06,14,16,00,25.00
2015,06,14,16,01,25.00
2015,06,14,16,02,25.00
2015,06,14,16,03,25.00
2015,06,14,16,04,25.10
2015,06,14,16,05,25.10
2015,06,14,16,06,25.10
2015,06,14,16,07,25.00
2015,06,14,16,08,25.00
2015,06,14,16,09,25.00
2015,06,14,16,10,25.00
2015,06,14,16,11,25.00
2015,06,14,16,12,24.90
2015,06,14,16,13,25.00
2015,06,14,16,14,25.00
2015,06,14,16,15,25.00
2015,06,14,16,16,25.10
2015,06,14,16,17,25.20
2015,06,14,16,18,25.10
2015,06,14,16,19,25.00
2015,06,14,16,20,25.00
2015,06,14,16,21,24.90
2015,06,14,16,22,24.90
2015,06,14,16,23,24.70
2015,06,14,16,24,24.70
2015,06,14,16,25,24.60
2015,06,14,16,26,24.60
2015,06,14,16,27,24.50
2015,06,14,16,28,24.40
2015,06,14,16,29,24.20
2015,06,14,16,30,24.20
2015,06,14,16,31,24.20
2015,06,14,16,32,24.20
2015,06,14,16,33,24.20
2015,06,14,16,34,24.20
2015,06,14,16,35,24.10
2015,06,14,16,36,24.10
2015,06,14,16,37,24.00
2015,06,14,16,38,23.90
2015,06,14,16,39,23.80
2015,06,14,16,40,23.80
2015,06,14,16,41,23.80
2015,06,14,16,42,23.70
2015,06,14,16,43,23.70
2015,06,14,16,44,23.70
2015,06,14,16,45,23.70
2015,06,14,16,46,23.70
2015,06,14,16,47,23.70
2015,06,14,16,48,23.70
2015,06,14,16,49,23.70
2015,06,14,16,50,23.70
2015,06,14,16,51,23.70
2015,06,14,16,52,23.60
2015,06,14,16,53,23.50
2015,06,14,16,54,23.40
2015,06,14,16,55,23.40
2015,06,14,16,56,23.40
2015,06,14,16,57,23.40
2015,06,14,16,58,23.40
2015,06,14,16,59,23.40
2015,06,14,17,00,23.30
2015,06,14,17,01,23.20
2015,06,14,17,02,23.10
2015,06,14,17,03,23.00
2015,06,14,17,04,23.10
2015,06,14,17,05,23.10
2015,06,14,17,06,23.20
2015,06,14,17,07,23.20
2015,06,14,17,08,23.20
2015,06,14,17,09,23.20
2015,06,14,17,10,23.20
2015,06,14,17,11,23.20
2015,06,14,17,12,23.20
2015,06,14,17,13,23.20
2015,06,14,17,14,23.30
2015,06,14,17,15,23.30
2015,06,14,17,16,23.30
2015,06,14,17,17,23.30
2015,06,14,17,18,23.30
2015,06,14,17,19,23.30
2015,06,14,17,20,23.30
2015,06,14,17,21,23.10
2015,06,14,17,22,23.10
2015,06,14,17,23,23.00
2015,06,14,17,24,22.90
2015,06,14,17,25,22.90
2015,06,14,17,26,22.90
2015,06,14,17,27,23.00
2015,06,14,17,28,23.10
2015,06,14,17,29,23.10